STARLINK-1554, 46055

Orbit data source: Space-Track

STARLINK-1554, 46055 is a payload satellite owned by SpaceX/Seattle (US) in LEO that was launched on Fri, 07 Aug 2020 UTC via an FALCON 9 launch vehicle from the Air Force Eastern Test Range (AFETR). Payload-class satellites include a variety of spacecraft equipped with specific instruments for various scientific and technological missions. These include communications satellites like Starlink; space stations such as the ISS; scientific satellites like the Hubble; Earth observation satellites from companies like Planet Labs, Umbra, and HawkEye 360; GPS; miniature CubeSats for education and research; and military/defense satellites.

Loading next visibility...
Identifier
46055, 2020-055AE
Orbit
LEO
Country
Flag of USUS
Related business
Manufacturer
SpaceX/Seattle
Mission
Operational Commercial Communications
Bus & Motor
STARLINK, Unknown motor
Mass
260 kg wet, ~248 kg dry
Launch date (UTC)
2020-08-07 (5 years ago)
Launch vehicle
FALCON 9
Launch site
Air Force Eastern Test Range (AFETR)
Object type
Payload
Rocket body
Debris
Shape & HBR
Box + 1 Pan, 10.1 m
Radar Cross Section
13.562 m², Large (>1 m²)

Expand to show TLE details & history
Last TLE update: 1 day ago

TLE from 1 day ago
0 STARLINK-1554
1 46055U 20055AE  25300.39097170  .00002391  00000-0  17936-3 0  9992
2 46055  53.0564 355.0184 0001262  91.1647 268.9487 15.06402151288940
Epoch: 2025-10-27T09:22Z
TLE epoch observation values (Epoch: 2025-10-27T09:22:59.954Z)
Latitude
-0.00001°
Longitude
178.27509°
Altitude
548.1 km
Speed
7.589 km/s
True Right ascension
23h 40m 04s
True Declination
0° 00' 00"
Sunlit
Object was in full shadow at epoch
Visualization orbit readout
Latitude
Unknown
Longitude
Unknown
Altitude
Unknown
Speed
Unknown
Apparent Right ascension
Unknown
Apparent Declination
Unknown
Sunlit
N/A
Visualization observer readout
Local Sidereal Time
07:56:30
Azimuth
Unknown
Elevation
Unknown
Doppler factor
Unknown
Orbital elements
Apogee altitude
548.349 km
Perigee altitude
546.601 km
Semi-major axis
6,925.612 km
Eccentricity
0.00013
Inclination
53.0564°
RAAN
355.0184°
Arg. of periapsis
91.1647°
True anomaly
268.93424°
Mean anomaly
268.9487°
Eccentric anomaly
268.94147°
Mean motion
3.76579 °/min
Orbital period
95.6 mins
BSTAR
0.00017936
Loading maneuver chart data...
Computing Atmospheric mass density...
Loading historical data...
Loading historical data...
Loading historical data...
Loading historical data...
Loading historical data...
Loading historical data...
Loading historical data...

Documentation

Showing up to 5 results
|